Tracking 18844 objects as of 21-Nov-2017
HD Live streaming from Space Station
objects crossing your sky now

FENGYUN 1C DEB

Track FENGYUN 1C DEB now!
10-day predictions


NORAD ID: 38809
Int'l Code: 1999-025EUZ
Perigee: 686.3 km
Apogee: 1,033.6 km
Inclination: 98.9 °
Period: 102.0 minutes
Semi major axis: 7230 km
RCS: 0.003 m2 (small)
Launch date: May 10, 1999
Source: People's Republic of China (PRC)
Launch site: Taiyaun Space Center, China (TSC)

Note: This is SATELLITE DEBRIS
aabbcc
Your satellite tracking list
Your tracking list is empty




NASA's NSSDC Master Catalog

Two Line Element Set (TLE):
1 38809U 99025EUZ 17324.34352166  .00000258  00000-0  12598-3 0  9993
2 38809  98.8514   7.2134 0240106  90.4858 272.3829 14.11920005344815
Source of the keplerian elements: AFSPC